Flag for Germany Weather past 2 weeks in Weimar, Thuringia, Germany

Now
52 °F

Sunny.


Feels Like: 48 °F
Forecast: 33 / 57 °F
Wind: 10 mph from Northwest

Location: Erfurt-Bindersleben

Current Time: Apr 28, 2015 at 5:35:43 PM

Latest Report: Apr 28, 2015 at 5:20 PM


Visibility: 10 mi

Pressure: 29.98 "Hg

Humidity: 30%

Dew point: 21 °F

Location of WeimarLocation

Historic Weather in Weimar — Graph

°F

Weimar temperature yesterday

Maximum temperature yesterday: 59 °F (at 10:20 AM)
Minimum temperature yesterday: 43 °F (at 10:20 PM)
Average temperature yesterday: 51 °F

Past Weeks' High & Low Weather Summary

 TemperatureHumidityPressure
High73 °F (Apr 15, 3:50 PM)100% (Apr 23, 12:50 AM)30.42 "Hg (Apr 23, 12:50 AM)
Low28 °F (Apr 19, 6:20 AM)21% (Apr 21, 6:20 PM)29.56 "Hg (Apr 27, 4:50 AM)
Average50 °F65%30.06 "Hg
* Reported Apr 13 4:20 PM — Apr 28 4:20 PM, Weimar, Weather by CustomWeather, © 2015

Note: Actual official high and low records may vary slightly from our data, if they occured in-between our weather recording intervals... More about our weather records

Advertising

Weimar weather history for previous 24 hours

 ConditionsComfort  
Time TempWeatherWind HumidityBarometerVisibility
4:20 PM
Tue, Apr 28
54 °FSunny.15 mph35%29.98 "Hg10 mi
3:50 PM52 °FSunny.13 mph32%29.98 "Hg10 mi
3:20 PM52 °FSunny.13 mph44%29.95 "Hg10 mi
2:50 PM50 °FPartly sunny.14 mph37%29.95 "HgN/A
2:20 PM50 °FScattered clouds.12 mph47%29.95 "HgN/A
1:50 PM50 °FScattered clouds.12 mph54%29.95 "HgN/A
1:20 PM50 °FScattered clouds.12 mph62%29.92 "HgN/A
12:50 PM48 °FScattered clouds.9 mph66%29.92 "HgN/A
12:20 PM46 °FScattered clouds.7 mph76%29.92 "HgN/A
11:50 AM45 °FBroken clouds.5 mph81%29.92 "HgN/A
11:20 AM45 °FBroken clouds.5 mph87%29.89 "HgN/A
10:50 AM43 °FBroken clouds.7 mph87%29.89 "HgN/A
10:20 AM41 °FBroken clouds.7 mph93%29.89 "HgN/A
9:50 AM41 °FBroken clouds.7 mph93%29.86 "HgN/A
9:20 AM41 °FDrizzle. Broken clouds.5 mph93%29.86 "HgN/A
8:50 AM39 °FDrizzle. Broken clouds.6 mph100%29.86 "Hg5 mi
8:20 AM39 °FLight rain. Broken clouds.7 mph100%29.83 "Hg5 mi
7:50 AM39 °FLight rain. Partly sunny.3 mph100%29.83 "HgN/A
7:20 AM39 °FLight rain. Partly sunny.2 mph100%29.83 "HgN/A
6:50 AM37 °FLight rain. Passing clouds.5 mph100%29.80 "HgN/A
6:20 AM37 °FLight rain. Passing clouds.6 mph100%29.80 "HgN/A
5:20 AM39 °FLight rain. Partly cloudy.3 mph100%29.77 "HgN/A
4:50 AM39 °FLight rain. Partly cloudy.5 mph100%29.77 "HgN/A
4:20 AM39 °FPartly cloudy.7 mph100%29.77 "HgN/A
3:50 AM39 °FPassing clouds.7 mph100%29.77 "HgN/A
3:20 AM39 °FPartly cloudy.8 mph100%29.77 "HgN/A
2:50 AM39 °FPartly cloudy.9 mph100%29.77 "HgN/A
2:20 AM39 °FPartly cloudy.13 mph100%29.77 "HgN/A
1:50 AM41 °FPartly cloudy.14 mph100%29.74 "Hg4 mi
1:20 AM41 °FPartly cloudy.15 mph100%29.74 "Hg4 mi
12:50 AM41 °FPartly cloudy.10 mph100%29.74 "Hg4 mi
12:20 AM43 °FPartly cloudy.13 mph100%29.74 "Hg4 mi
11:20 PM
Mon, Apr 27
43 °FPartly cloudy.13 mph100%29.74 "Hg4 mi
10:50 PM43 °FPartly cloudy.13 mph100%29.74 "Hg4 mi
10:20 PM43 °FDrizzle. Fog.12 mph100%29.71 "Hg1 mi
9:50 PM45 °FDrizzle. Fog.12 mph100%29.71 "Hg1 mi
9:20 PM45 °FDrizzle. Fog.12 mph100%29.71 "Hg1 mi
8:50 PM45 °FDrizzle. Fog.12 mph100%29.71 "Hg1 mi
8:20 PM45 °FDrizzle. Fog.10 mph100%29.71 "Hg2 mi
7:50 PM46 °FLight rain. Fog.13 mph100%29.68 "Hg3 mi
7:20 PM46 °FLight rain. Fog.10 mph100%29.68 "Hg3 mi
6:50 PM48 °FLight rain. Partly sunny.14 mph94%29.68 "Hg4 mi
6:20 PM48 °FLight rain. Broken clouds.12 mph94%29.68 "HgN/A
5:50 PM48 °FLight rain. Broken clouds.10 mph94%29.68 "HgN/A
5:20 PM50 °FLight rain. Partly sunny.12 mph88%29.65 "HgN/A
Weather by CustomWeather, © 2015

See weather overviewHow to use our weather pages